User: anonymous   Login
Location: Unspecified
(0.0000°N, 0.0000°E)
Time: 03:18:36
(UTC+00:00)
Language:

STARLINK-2096 - Orbit

View from above orbital plane
View from above orbital plane
View from above satellite
View from above satellite

Ground track
Ground track

The orbit is defined by the following mean orbital elements,

1 47376U          26145.51316192 +.00000000 +00000-0 -81170-4 0 00008
2 47376  53.1605  65.2204 0001340  88.8245 271.2910 15.31694397    01
Epoch (UTC): 25 May 2026 12:18:57
Eccentricity: 0.0001340
inclination: 53.1605°
perigee height: 470 km
apogee height: 472 km
right ascension of ascending node: 65.2204°
argument of perigee: 88.8245°
revolutions per day: 15.31694397
mean anomaly at epoch: 271.2910°

The dashed part of the orbit path shows where the satellite is in the earth's shadow,  

DLR